Location: Unspecified
(0.0000°N, 0.0000°E)
Time: 08:53:08
(UTC+00:00)

Vanguard 2 Rocket - All Passes

Search period start: 25 June 2016 00:00
Search period end: 05 July 2016 00:00
Orbit: 555 x 3329 km, 32.9° (Epoch: 24 June)

Date Brightness Start Highest point End Pass type
(mag) Time Alt. Az. Time Alt. Az. Time Alt. Az.
25 Jun - 06:01:28 10° S 06:02:57 11° SSE 06:04:21 10° SE daylight
25 Jun - 08:12:19 10° WSW 08:16:15 65° NW 08:20:29 10° NE daylight
25 Jun - 15:02:22 10° N 15:07:59 13° NNE 15:14:40 10° NE daylight
25 Jun - 17:13:03 10° NNW 17:27:28 40° NE 17:45:38 10° E daylight
25 Jun - 19:27:27 10° NW 19:46:34 88° NE 20:05:55 10° SE visible
25 Jun - 21:47:07 10° W 22:05:42 43° SW 22:20:40 10° SSE visible
26 Jun - 00:16:55 10° SW 00:25:09 15° SSW 00:31:52 10° S visible
26 Jun - 07:13:16 10° SW 07:17:32 52° SE 07:21:23 10° ENE daylight
26 Jun - 09:28:41 10° NW 09:30:40 13° NNW 09:32:49 10° N daylight
26 Jun - 16:14:10 10° NNW 16:25:46 28° NNE 16:41:08 10° E daylight
26 Jun - 18:27:07 10° NW 18:44:29 70° NE 19:04:35 10° ESE visible
26 Jun - 20:44:19 10° WNW 21:03:42 57° SW 21:21:04 10° SE visible
26 Jun - 23:09:48 10° WSW 23:23:17 23° SSW 23:33:55 10° SSE visible
27 Jun - 06:14:19 10° SSW 06:18:35 26° SSE 06:22:00 10° E daylight
27 Jun - 08:28:14 10° W 08:31:28 24° NNW 08:34:53 10° NNE daylight
27 Jun - 15:16:04 10° N 15:24:18 19° NNE 15:35:01 10° ENE daylight
27 Jun - 17:27:27 10° NW 17:42:37 54° NE 18:02:16 10° ESE daylight
27 Jun - 19:42:41 10° WNW 20:01:33 72° SW 20:20:50 10° SE visible
27 Jun - 22:04:30 10° W 22:21:15 32° SSW 22:35:02 10° SSE visible
28 Jun - 00:37:51 10° SW 00:41:59 11° SSW 00:45:40 10° S night (unlit)
28 Jun - 05:15:24 10° SSW 05:19:10 17° SSE 05:22:12 10° ESE visible
28 Jun - 07:28:24 10° WSW 07:32:40 53° NW 07:36:31 10° NE daylight
28 Jun - 14:20:10 10° NNE 14:23:01 11° NNE 14:26:10 10° NE daylight
28 Jun - 16:28:24 10° NNW 16:41:08 39° NE 16:58:47 10° E daylight
28 Jun - 18:42:00 10° NW 18:59:26 90° SW 19:19:52 10° SE visible
28 Jun - 21:00:48 10° W 21:19:02 42° SSW 21:35:32 10° SSE visible
28 Jun - 23:29:25 10° WSW 23:39:47 17° SSW 23:48:18 10° SSE visible
29 Jun - 04:16:23 10° S 04:19:19 13° SSE 04:21:48 10° SE visible
29 Jun - 06:28:46 10° SW 06:33:56 66° SE 06:37:51 10° ENE daylight
29 Jun - 15:30:00 10° NNW 15:39:59 27° NE 15:53:58 10° E daylight
29 Jun - 17:42:05 10° NW 17:57:34 72° NE 18:18:06 10° ESE daylight
29 Jun - 19:58:29 10° WNW 20:16:44 55° SW 20:35:27 10° SE visible
29 Jun - 22:22:57 10° WSW 22:37:23 24° SSW 22:49:28 10° SSE visible
30 Jun - 00:58:46 10° SSW 00:59:14 10° S 00:59:41 10° S night (unlit)
30 Jun - 03:17:03 10° S 03:18:59 11° S 03:20:44 10° SSE visible
30 Jun - 05:29:09 10° SW 05:34:53 35° SSE 05:38:53 10° E visible
30 Jun - 07:44:33 10° W 07:47:45 20° NW 07:50:43 10° NNE daylight
30 Jun - 14:32:32 10° N 14:39:06 17° NE 14:47:36 10° ENE daylight
30 Jun - 16:42:49 10° NW 16:56:08 54° NE 17:15:23 10° ESE daylight
30 Jun - 18:57:18 10° WNW 19:14:31 70° SW 19:34:44 10° SE visible
30 Jun - 21:18:10 10° W 21:34:51 32° SSW 21:49:58 10° SSE visible
30 Jun - 23:49:20 10° SW 23:56:53 14° SSW 00:03:19 10° SSE visible
01 Jul - 02:16:26 10° S 02:18:05 10° S 02:19:37 10° SSE visible
01 Jul - 04:29:21 10° SSW 04:35:22 24° SSE 04:39:34 10° ESE visible
01 Jul - 06:44:03 10° WSW 06:49:01 46° NW 06:52:51 10° NE daylight
01 Jul - 15:44:09 10° NNW 15:55:09 38° NE 16:11:38 10° E daylight
01 Jul - 17:57:01 10° NW 18:12:31 87° SW 18:33:20 10° SE visible
01 Jul - 20:15:00 10° W 20:32:18 41° SSW 20:49:55 10° SE visible
01 Jul - 22:42:17 10° WSW 22:54:10 18° SSW 23:04:16 10° SSE visible
02 Jul - 01:13:04 10° SSW 01:16:32 11° S 01:19:38 10° SSE night (unlit)
02 Jul - 03:29:13 10° SSW 03:35:22 19° SSE 03:39:49 10° ESE visible
02 Jul - 05:43:47 10° SW 05:50:14 81° SSE 05:54:30 10° ENE daylight
02 Jul - 14:46:09 10° NNW 14:54:33 25° NE 15:06:42 10° E daylight
02 Jul - 16:57:28 10° NW 17:11:00 74° NE 17:31:10 10° ESE daylight
02 Jul - 19:13:09 10° WNW 19:29:51 53° SSW 19:49:19 10° SE visible
02 Jul - 21:36:31 10° WSW 21:51:16 24° SSW 22:04:35 10° SSE visible
03 Jul - 00:07:50 10° SSW 00:14:19 13° S 00:19:52 10° SSE night (unlit)
03 Jul - 02:28:29 10° SSW 02:34:48 16° SSE 02:39:36 10° SE visible
03 Jul - 04:43:29 10° SW 04:51:05 46° SSE 04:55:48 10° ENE visible
03 Jul - 07:00:25 10° W 07:03:58 19° NW 07:06:56 10° N daylight
03 Jul - 13:49:23 10° N 13:54:12 14° NE 14:00:11 10° ENE daylight
03 Jul - 15:58:32 10° NW 16:10:01 54° NE 16:28:12 10° ESE daylight
03 Jul - 18:12:23 10° WNW 18:27:41 67° SW 18:48:08 10° SE visible
03 Jul - 20:32:22 10° W 20:48:22 31° SSW 21:04:25 10° SSE visible
03 Jul - 23:01:38 10° SW 23:11:32 16° S 23:19:56 10° SSE visible
04 Jul - 01:26:50 10° SSW 01:33:38 15° S 01:38:59 10° SE night (unlit)
04 Jul - 03:42:57 10° SW 03:51:25 32° SSE 03:56:43 10° E visible
04 Jul - 05:59:14 10° WSW 06:05:15 43° NW 06:09:23 10° NE daylight
04 Jul - 15:00:12 10° NNW 15:09:33 37° NE 15:24:20 10° E daylight
04 Jul - 17:12:28 10° WNW 17:25:57 84° SW 17:46:21 10° SE daylight
04 Jul - 19:29:43 10° W 19:45:38 39° SSW 20:03:47 10° SE visible
04 Jul - 21:55:36 10° SW 22:08:21 19° SSW 22:19:44 10° SSE visible
